Tracking 28348 objects as of 8-Dec-2023
HD Live streaming from Space Station
objects crossing your sky now

STARLINK-30866

Track STARLINK-30866 now!
10-day predictions
STARLINK-30866 is classified as:


NORAD ID: 58237
Int'l Code: 2023-171H
Perigee: 524.3 km
Apogee: 526.4 km
Inclination: 43.0 °
Period: 95.0 minutes
Semi major axis: 6896 km
RCS: Unknown
Launch date: November 8, 2023
Source: United States (US)
Launch site: AIR FORCE EASTERN TEST RANGE (AFETR)
Your satellite tracking list
Your tracking list is empty




NASA's NSSDC Master Catalog

Two Line Element Set (TLE):
1 58237U 23171H   23341.58335648  .00020919  00000-0  10810-2 0  9997
2 58237  43.0005  85.4502 0001543 283.0254 206.4428 15.15910609  5840
Source of the keplerian elements: AFSPC